TimeMDT,TemperatureF,Dew PointF,Humidity,Sea Level PressureIn,VisibilityMPH,Wind Direction,Wind SpeedMPH,Gust SpeedMPH,PrecipitationIn,Events,Conditions,WindDirDegrees,DateUTC
12:53 AM,57.0,39.9,53,30.12,10.0,SSW,4.6,-,N/A,,Clear,200,2012-10-01 06:53:00
1:53 AM,55.9,39.9,55,30.13,10.0,ESE,6.9,-,N/A,,Clear,110,2012-10-01 07:53:00
2:53 AM,57.2,39.2,51,30.25,10.0,SSE,5.8,-,N/A,,Clear,150,2012-10-01 08:53:00
3:53 AM,54.0,39.0,57,30.14,10.0,SSE,5.8,-,N/A,,Clear,150,2012-10-01 09:53:00
4:53 AM,54.0,39.9,59,30.14,10.0,SE,6.9,-,N/A,,Clear,140,2012-10-01 10:53:00
5:53 AM,53.6,39.2,58,30.26,10.0,South,4.6,-,N/A,,Clear,180,2012-10-01 11:53:00
6:53 AM,54.0,39.0,57,30.17,10.0,SE,3.5,-,N/A,,Clear,140,2012-10-01 12:53:00
7:53 AM,53.1,39.9,61,30.18,10.0,ESE,8.1,-,N/A,,Clear,110,2012-10-01 13:53:00
8:53 AM,61.0,41.0,48,30.19,10.0,SSE,4.6,-,N/A,,Clear,160,2012-10-01 14:53:00
9:53 AM,66.2,35.6,32,30.30,10.0,SE,6.9,-,N/A,,Clear,130,2012-10-01 15:53:00
10:53 AM,71.1,36.0,28,30.17,10.0,East,3.5,-,N/A,,Partly Cloudy,90,2012-10-01 16:53:00
11:53 AM,75.0,35.1,23,30.15,10.0,NNW,5.8,-,N/A,,Clear,330,2012-10-01 17:53:00
12:53 PM,77.0,35.1,22,30.14,10.0,Calm,Calm,-,N/A,,Clear,0,2012-10-01 18:53:00
1:53 PM,78.1,37.0,23,30.13,10.0,Variable,4.6,-,N/A,,Clear,0,2012-10-01 19:53:00
2:53 PM,79.0,33.1,19,30.10,10.0,NNW,10.4,-,N/A,,Clear,330,2012-10-01 20:53:00
3:53 PM,80.1,35.1,20,30.08,10.0,NNW,10.4,-,N/A,,Clear,340,2012-10-01 21:53:00
4:53 PM,80.1,32.0,17,30.06,10.0,Variable,6.9,-,N/A,,Clear,0,2012-10-01 22:53:00
5:53 PM,79.0,33.1,19,30.05,10.0,North,8.1,-,N/A,,Clear,360,2012-10-01 23:53:00
6:53 PM,75.0,34.0,22,30.04,10.0,NNW,5.8,-,N/A,,Clear,340,2012-10-02 00:53:00
7:53 PM,66.9,41.0,39,30.06,10.0,WNW,3.5,-,N/A,,Clear,290,2012-10-02 01:53:00
8:53 PM,64.9,39.0,39,30.06,10.0,SSE,4.6,-,N/A,,Clear,150,2012-10-02 02:53:00
9:53 PM,64.0,37.0,37,30.04,10.0,SSE,4.6,-,N/A,,Clear,150,2012-10-02 03:53:00
10:53 PM,60.1,35.1,39,30.03,10.0,SSE,5.8,-,N/A,,Clear,150,2012-10-02 04:53:00
11:53 PM,60.1,36.0,41,30.01,10.0,SSE,6.9,-,N/A,,Clear,150,2012-10-02 05:53:00